Regional Weather Roundup
Issued by NWS Green Bay, WI

Home | Current Version | Previous Version | Graphics & Text | Print | Product List | Glossary Off
Versions: 1 2 3 4 5 6 7 8 9 10 11 12 13 14 15 16 17 18 19 20 21 22 23 24 25 26 27 28 29 30 31 32 33 34 35 36 37 38 39 40 41 42 43 44 45 46 47 48 49 50

000
ASUS43 KGRB 251511
RWRGRB

NORTH-CENTRAL AND NORTHEAST WISCONSIN REGIONAL WEATHER ROUNDUP
NATIONAL WEATHER SERVICE GREEN BAY WI
1000 AM CDT MON MAY 25 2015

WIZ005-009-010>012-018-019-251600-
NORTH CENTRAL WISCONSIN

CITY           SKY/WX    TMP DP  RH WIND       PRES   REMARKS
IRONWOOD       CLOUDY    57  55  94 E5        29.66F
MANITOWISH WTR LGT RAIN  58  58 100 SE5       29.69F
ARBOR VITAE    LGT RAIN  59  58  96 S6        29.70F
EAGLE RIVER    HVY RAIN  57  57 100 SE7       29.71F
LAND O LAKES   LGT RAIN  58  57  99 SE7       29.72F
RHINELANDER    LGT RAIN  59  58  96 SE6       29.71F FOG
PHILLIPS       DRIZZLE   60  60 100 S7        29.67F
ANTIGO         LGT RAIN  57  57 100 SE5       29.72F
TOMAHAWK       DRIZZLE   60  59  97 CALM      29.70F
MERRILL        CLOUDY    61  61 100 S5        29.71S
$$

WIZ013-073-251600-
NORTHEAST WISCONSIN

CITY           SKY/WX    TMP DP  RH WIND       PRES   REMARKS
IRON MOUNTAIN  LGT RAIN  57  55  93 E6        29.73F
MARINETTE      CLOUDY    54  52  94 SE7       29.73F VSB 1/2
OCONTO         CLOUDY    60  60 100 SE7       29.72F
$$

WIZ017-030-035>037-045-251600-
CENTRAL WISCONSIN

CITY           SKY/WX    TMP DP  RH WIND       PRES   REMARKS
MEDFORD        RAIN      62  62 100 S10       29.70S
WAUSAU         LGT RAIN  61  60  97 E3        29.70S FOG
MOSINEE        LGT RAIN  63  63 100 SE3       29.72S
MARSHFIELD     LGT RAIN  64  62  93 SW9       29.71S
WISC RAPIDS    LGT RAIN  65  62  90 SW6       29.72S
STEVENS POINT  LGT RAIN  62  61  99 CALM      29.71F
WAUPACA        RAIN      67  66  97 SW9       29.71R
SHAWANO        DRIZZLE   63  62  96 CALM      29.70F
CLINTONVILLE   DRIZZLE   64  63  94 SE7       29.69F
$$

WIZ038-039-048-051-251600-
FOX VALLEY

CITY           SKY/WX    TMP DP  RH WIND       PRES   REMARKS
NWS GREEN BAY  CLOUDY    67  64  90 S16       29.71F FOG
APPLETON       CLOUDY    64  64 100 S12G18    29.71F FOG
OSHKOSH        CLOUDY    67  64  90 S13       29.71S FOG
FOND DU LAC    CLOUDY    70  62  76 SW21G29   29.74R
$$

WIZ022-050-052-251600-
EAST CENTRAL WISCONSIN

CITY           SKY/WX    TMP DP  RH WIND       PRES   REMARKS
STURGEON BAY   CLOUDY    59  55  88 S17       29.76F
MANITOWOC      CLOUDY    57  56  96 S12       29.75F
SHEBOYGAN      PTSUNNY   65  62  90 S15       29.76F
$$

LMZ563-521-522-541>543-251600-
LAKESHORE

STATION/POSITION TIME  TEMP    WIND        PRES    VSBY  WAVE
                       AIR SEA DIR/SP/G                  HT/PER
                 (UTC) (F)     (DEG/KT/KT) (MB)    (MI)  (FT/S)
SHEBOYGAN LKSHOR 1500   50     180/ 22/ 25 1008.2F
KEWAUNEE LKSHORE 1400   47     180/  9/ 10 1007.7F
NORTHPORT PIER   1400   49     160/  8/ 12 1008.8F
N MID LAKE BUOY  1450   46 36  180/ 10/ 12 1009.0F         1
SISTER BAY LKSHO 1417   53     150/ 11/ 15   N/A
CHAMBERS ISLAND  1400   56     110/  4/  8 1008.1F
MENOMINEE LKSHOR 1400   53     130/  3/  4 1008.4F
$$



USA.gov is the U.S. government's official web portal to all federal, state and local government web resources and services.